This demonstration page uses our WeatherBlox Daily Observations layout. Learn more.

Left ArrowRight Arrow

Hourly Observations for January 2, 2017

Temp ( °F °C ) Dew Point ( °F °C ) Humidity (%) Winds ( mph kmh ) Pressure ( in mb ) Visibility ( mi km ) Precip ( " mm )
12:52 am 00:52 Cloudy with Mist and Fog 43 6.1 42 5.6 97 97 SSE 15 24 29.92 1013 3 5 0.00 0.00
1:01 am 01:01 Cloudy with Mist and Fog 43 6.1 42 5.6 97 97 SSE 15 24 29.94 1014 3 5 0.00 0.00
1:52 am 01:52 Cloudy with Mist and Fog 43 6.1 42 5.6 97 97 SSE 12 19 29.92 1013 3 5 0.00 0.00
2:52 am 02:52 Cloudy with Mist and Fog 43 6.1 42 5.6 97 97 SE 13 20 29.90 1012 5 8 0.00 0.00
3:52 am 03:52 Cloudy with Mist and Fog 44 6.7 42 5.6 93 93 SSE 14 22 29.88 1012 3 5 0.00 0.00
4:24 am 04:24 Cloudy with Mist and Fog 45 7 43 6 93 93 SSE 15 24 29.91 1013 3 4 0.00 0.00
4:42 am 04:42 Cloudy with Mist and Fog 45 7 43 6 93 93 SSE 12 19 29.91 1013 3 5 0.00 0.00
4:52 am 04:52 Cloudy with Mist and Fog 44 6.7 43 6.1 96 96 SSE 13 20 29.88 1012 3 5 0.00 0.00
5:52 am 05:52 Cloudy 44 6.7 43 6.1 96 96 SSE 17 28 29.87 1011 10 16 0.00 0.00
6:02 am 06:02 Cloudy 45 7 43 6 93 93 SSE 17 28 29.88 1012 10 16 0.00 0.00
6:52 am 06:52 Cloudy 45 7.2 43 6.1 93 93 SE 14 22 29.87 1012 10 16 0.00 0.00
7:27 am 07:27 Cloudy 45 7.2 43 6.1 93 93 SSE 16 26 29.88 1012 10 16 0.00 0.00
7:36 am 07:36 Cloudy 45 7 43 6 93 93 SSE 14 22 29.91 1013 9 14 0.00 0.00
7:52 am 07:52 Cloudy 45 7.2 43 6.1 93 93 SSE 18 30 29.86 1011 8 13 0.00 0.00
8:00 am 08:00 Cloudy 45 7 43 6 93 93 SSE 17 28 29.88 1012 7 11 0.00 0.00
8:52 am 08:52 Cloudy 46 7.8 44 6.7 93 93 SSE 13 20 29.88 1012 7 11 0.00 0.00
9:52 am 09:52 Cloudy with Mist and Fog 47 8.3 45 7.2 93 93 SSE 17 28 29.88 1012 2 3 0.00 0.00
10:10 am 10:10 Cloudy with Mist and Fog 46 8 45 7 93 93 SSE 18 30 29.91 1013 4 6 0.00 0.00
10:52 am 10:52 Cloudy 48 9 46 8 94 94 SSE 16 26 29.85 1011 10 16 0.00 0.00
10:59 am 10:59 Cloudy 49 9.4 46 7.8 90 90 SSE 14 22 29.85 1011 10 16 0.00 0.00
11:31 am 11:31 Cloudy 49 9.4 46 7.8 90 90 SSE 15 24 29.85 1011 10 16 0.00 0.00
11:52 am 11:52 Cloudy 49 9.4 46 7.8 90 90 SE 14 22 29.85 1011 7 11 0.00 0.00
12:45 pm 12:45 Cloudy 51 10.6 47 8.3 86 86 SE 13 20 29.83 1010 9 14 0.00 0.00
12:52 pm 12:52 Cloudy 51 10.6 47 8.3 86 86 SSE 13 20 29.83 1010 10 16 0.00 0.00
1:52 pm 13:52 Cloudy 52 11.1 48 8.9 86 86 SE 12 19 29.78 1009 10 16 0.00 0.00
2:52 pm 14:52 Cloudy 51 10.6 48 8.9 89 89 S 6 9 29.79 1009 10 16 0.00 0.00
3:47 pm 15:47 Cloudy with Light Rain 52 11 48 9 88 88 SSE 9 15 29.77 1008 6 10 0.00 0.03
3:52 pm 15:52 Cloudy with Light Rain 51 10.6 49 9.4 92 92 SSE 8 13 29.78 1008 5 8 0.00 0.03
4:22 pm 16:22 Cloudy 52 11 48 9 88 88 ESE 7 11 29.77 1008 10 16 0.00 0.00
4:52 pm 16:52 Cloudy 51 10.6 49 9.4 92 92 SSE 9 15 29.78 1008 10 16 0.00 0.03
5:09 pm 17:09 Mostly Cloudy 50 10 48 9 94 94 ESE 9 15 29.74 1007 10 16 0.00 0.00
5:52 pm 17:52 Mostly Cloudy 50 10 48 8.9 93 93 WNW 7 11 29.78 1009 10 16 0.00 0.00
6:43 pm 18:43 Cloudy with Mist and Fog 49 9.4 49 9.4 100 100 SSE 5 7 29.77 1008 2 3 0.00 0.00
6:52 pm 18:52 Mostly Cloudy with Mist and Fog 50 10 49 9.4 96 96 SSE 3 6 29.78 1009 1 2 0.00 0.00
7:10 pm 19:10 Mostly Cloudy with Fog 49 9.4 49 9.4 100 100 SSE 5 7 29.80 1009 0 0 0.00 0.00
7:52 pm 19:52 Mostly Cloudy with Fog 49 9.4 49 9.4 100 100 SSW 6 9 29.81 1009 0 0 0.00 0.00
8:52 pm 20:52 Mostly Cloudy with Fog 48 8.9 47 8.3 96 96 WSW 9 15 29.84 1010 1 1 0.00 0.00
9:22 pm 21:22 Mostly Cloudy with Fog 48 9 46 8 94 94 S 6 9 29.83 1010 0 0 0.00 0.00
9:52 pm 21:52 Mostly Cloudy with Fog 47 8.3 47 8.3 100 100 S 6 9 29.83 1010 0 0 0.00 0.00
10:52 pm 22:52 Mostly Cloudy with Fog 46 7.8 45 7.2 96 96 S 3 6 29.83 1010 0 0 0.00 0.00
11:36 pm 23:36 Mostly Cloudy with Fog 46 7.8 45 7.2 96 96 SW 3 6 29.85 1011 1 1 0.00 0.00
11:52 pm 23:52 Mostly Cloudy with Fog 46 7.8 45 7.2 96 96 S 3 6 29.84 1011 1 1 0.00 0.00

Powered by AerisWeather